カタログに戻る

SL-3 R/B

運用中PO
NORAD 6660·ROCKET BODY·🇷🇺 Russia

打ち上げ May 29, 1973 から Plesetsk Cosmodrome

Loading…

次のパス (今後24時間)

TLE

最新Source: Space-Track

元期: Sep 14, 2026, 11:36 UTC

1 06660U 73034B   26257.48350838  .00000135  00000-0  74290-4 0  9991
2 06660  81.2341 336.3977 0045748 323.2213  36.5819 14.06294996732555

AllMySatでSL-3 R/Bをリアルタイム追跡

Download on the App Store